Location: Tr�vern
(48.0333°N, 4.6000°W)
Time: 08:45:59
(UTC+00:00)

Cosmos 2228 Rocket - Pass Details

Date: 14 July 2020
Orbit: 618 x 652 km, 82.5° (Epoch: 04 August)

Event Time Altitude Azimuth Distance (km) Brightness Sun altitude
Rises 00:11:18 0° 344° (NNW) 2,979 8.0 -20.3°
Reaches altitude 10° 00:13:39 10° 337° (NNW) 2,060 6.8 -20.3°
Maximum altitude 00:17:57 41° 268° (W) 940 3.9 -20.3°
Enters shadow 00:19:05 34° 232° (SW) 1,058 3.9 -20.3°
